カタログに戻る

SL-12 R/B(2)

運用中UNKNOWN
NORAD 24829·ROCKET BODY·🇷🇺 Russia

打ち上げ Jun 6, 1997 から Baikonur Cosmodrome

Loading…

次のパス (今後24時間)

TLE

最新Source: Space-Track

元期: Sep 14, 2026, 13:44 UTC

1 24829U 97028C   26257.57262426  .00000102  00000-0  15933-2 0  9993
2 24829  63.3168 100.3881 1094824  47.5881 346.5432 11.07256784183657

AllMySatでSL-12 R/B(2)をリアルタイム追跡

Download on the App Store